Regional Weather Roundup
Issued by NWS

Home | Current Version | Previous Version | Text Only | Print | Product List | Glossary Off
Versions: 1 2 3 4 5 6 7 8 9 10 11 12 13 14 15 16 17 18 19 20 21 22 23 24 25 26 27 28 29 30 31 32 33 34 35 36 37 38 39 40 41 42 43 44 45 46 47 48 49 50

184
ASUS45 KSLC 261310
RWRUT

UTAH REGIONAL WEATHER ROUNDUP
NATIONAL WEATHER SERVICE SALT LAKE CITY UT
700 AM MDT TUE JUL 26 2016

UTZ001>011-023>025-261400-

NORTHERN UTAH

CITY           SKY/WX    TMP DP  RH WIND       PRES   REMARKS
BRIGHAM CITY     N/A     67  39  35 W7        30.06S
HILL AFB       MOCLDY    72  38  28 E17       30.09R
LOGAN          PTCLDY    57  47  69 NE6       30.10S
OGDEN          MOCLDY    72  39  30 S13       30.06R
PROVO AIRPORT  PTCLDY    72  45  37 S8        30.09S
SALT LAKE CITY MOCLDY    79  42  26 SE12      30.04R
VERNAL         CLEAR     61  40  45 NW3       30.19R
WENDOVER       PTCLDY    70  37  30 CALM      30.05R
HEBER CITY     CLEAR     55  45  67 CALM      30.19R

$$

UTZ012>022-026-027-261400-

SOUTHERN/CENTRAL UTAH

CITY           SKY/WX    TMP DP  RH WIND       PRES   REMARKS
BLANDING       CLOUDY    71  47  42 NE6       30.32S
BRYCE CANYON   MOCLDY    48  44  86 W6        30.40R
CEDAR CITY     CLEAR     68  44  42 S8        30.21R
DELTA          CLEAR     68  34  28 S7        30.11R
MILFORD        CLEAR     69  45  41 S12       30.14R
MOAB/CYNLANDS  MOCLDY    72  41  32 CALM      30.10S
PRICE          MOCLDY    67  36  31 N8        30.22R
ST GEORGE      SUNNY     81  45  28 CALM      30.03R

$$

REGIONAL REPORTS     COLORADO/ARIZONA

CITY           SKY/WX    TMP DP  RH WIND       PRES   REMARKS
CRAIG, CO      CLOUDY    53  42  66 CALM      30.28R
GRAND JUNCTION MOCLDY    70  44  39 E6        30.16R
RIFLE          PTCLDY    68  42  38 CALM      30.23R
MONTROSE       PTCLDY    66  46  48 S5        30.26R
CORTEZ         PTCLDY    68  52  56 NE7       30.26S
PAGE, AZ       MOCLDY    80  45  28 CALM      30.11R
GRAND CANYON   CLOUDY    64  46  52 NE3       30.32R
KINGMAN        PTCLDY    77  50  38 SE9       30.05R
FLAGSTAFF      CLOUDY    55  55 100 CALM      30.35R

$$

REGIONAL REPORTS    NEVADA/IDAHO/WYOMING

CITY           SKY/WX    TMP DP  RH WIND       PRES   REMARKS
LAS VEGAS, NV  PTCLDY    88  52  29 SW5       29.88R
ELY            CLEAR     48  23  37 S10       30.24R
ELKO           PTCLDY    53  24  32 MISG      30.16R
POCATELLO, ID  CLOUDY    51  33  50 CALM      30.11R
BURLEY         CLEAR     50  45  83 CALM      30.06R
EVANSTON, WY   CLOUDY    59  34  39 NW8       30.32R
ROCK SPRINGS   CLOUDY    63  33  32 CALM      30.28R
KEMMERER         N/A     52  30  43 N10       30.31R

$$




USA.gov is the U.S. government's official web portal to all federal, state and local government web resources and services.